Wind_Speed
11 11 10 11 9 3 6 6 3 4 4 4 2 1 2 1 1 2 3 1 2 2 2 4 4 4 4 5 7 6 2 1 2 1 0 2 1 6 9 11 14 16 18 19 21 22 24 26 25 26 27 27 28 29 30 30 31 32 33 33 32 30 29 30 30 31 31 31 31 32 35 35 36 38 38 42 42 39 37 29 21 16 16 18 19 20 20 20 20 19 19 18 18 17 15 14 16
11 10 8 9 11 5 2 4 4 3 5 4 3 0 3 4 3 3 4 2 2 3 2 3 7 9 8 7 6 5 4 2 0 2 1 0 2 4 10 11 14 15 17 19 20 21 23 25 24 25 25 26 27 27 29 29 30 31 32 33 33 32 30 30 30 30 31 31 31 31 32 33 36 37 37 38 41 42 42 39 33 24 15 13 16 19 19 20 20 20 20 18 19 20 17 14 14
12 10 7 5 9 7 1 5 5 2 5 3 2 2 2 3 2 2 4 1 5 7 4 2 5 5 5 5 4 3 2 2 3 2 1 3 1 4 9 10 12 14 16 18 19 19 21 23 23 24 25 25 26 26 27 28 29 29 30 31 32 32 32 30 30 30 30 31 31 31 31 32 34 35 35 36 39 41 42 41 39 34 25 20 18 15 18 19 20 21 21 20 19 20 19 17 15
13 8 5 5 5 5 4 5 3 4 4 3 1 3 1 3 2 0 4 3 4 3 1 3 4 3 3 4 3 2 1 2 2 1 0 4 2 4 7 9 12 13 15 17 17 17 19 22 23 23 24 25 26 26 27 27 28 29 29 29 30 31 32 31 31 30 29 30 30 30 30 31 33 32 33 33 34 37 39 41 41 38 33 29 28 18 14 16 18 21 21 22 20 20 19 19 18
17 14 9 7 4 2 4 3 2 4 2 3 2 1 2 4 3 2 2 4 2 2 0 2 2 2 3 2 1 1 1 1 1 2 3 2 2 4 7 9 11 12 14 15 16 16 16 20 22 23 24 25 25 26 26 27 27 28 28 28 28 29 30 30 30 30 30 29 29 29 29 30 32 32 33 32 31 33 35 39 41 40 38 34 34 29 23 17 13 15 19 22 21 22 21 20 19
13 20 19 14 5 1 4 4 4 4 2 4 3 2 3 5 4 5 2 3 4 4 2 2 2 2 2 2 1 1 2 1 1 3 3 2 2 4 6 8 9 11 13 14 15 15 15 18 21 22 23 24 25 25 26 26 27 27 28 28 28 28 28 29 29 30 30 29 29 29 29 29 30 32 32 32 30 30 31 34 39 41 39 36 34 34 31 27 20 15 14 16 19 22 22 22 20
4 9 12 12 4 3 5 4 4 2 1 2 2 1 2 4 6 5 1 0 3 6 4 2 3 5 1 2 0 2 3 2 2 3 4 3 3 3 5 7 9 11 13 13 14 15 16 18 20 22 23 24 24 25 26 26 26 26 27 27 27 27 27 28 28 28 28 29 29 29 29 30 30 31 31 32 31 31 31 31 35 38 38 37 35 35 34 32 29 25 22 18 14 14 18 22 20
8 4 2 6 4 4 5 3 3 2 2 2 1 1 1 2 4 4 1 0 1 3 3 1 2 4 1 1 1 3 3 3 4 5 5 4 3 3 5 6 9 10 12 13 14 15 17 18 20 21 23 24 24 25 25 26 26 26 26 27 27 27 27 27 27 27 28 28 28 28 28 29 30 31 31 31 31 31 31 32 33 35 36 36 36 35 34 32 32 31 29 29 23 13 11 15 18
12 6 1 5 4 4 4 3 2 1 2 3 2 2 2 1 3 4 2 2 2 1 2 4 0 2 1 3 1 3 1 6 7 8 6 4 2 2 4 6 9 10 11 12 14 16 17 18 20 21 23 24 25 26 26 27 26 26 26 26 26 26 26 26 26 27 27 27 27 27 27 27 28 29 30 29 29 29 30 31 32 34 34 36 36 35 35 33 33 34 31 31 31 25 19 15 13
8 6 3 4 4 4 4 1 1 1 1 1 1 2 3 2 3 3 4 3 2 2 2 2 3 3 3 2 2 3 4 8 8 7 5 3 1 2 4 7 8 9 10 13 15 16 18 18 20 21 23 24 26 27 28 28 27 25 26 25 25 26 26 25 26 26 26 26 26 26 25 25 26 26 27 27 27 27 28 30 31 32 33 34 35 33 34 35 34 34 33 31 32 30 26 24 19
4 5 4 4 4 3 2 2 1 1 1 1 2 2 2 2 3 3 3 3 2 3 2 1 4 3 3 1 3 2 8 11 8 8 5 3 1 1 4 6 7 9 10 12 14 15 17 18 19 20 23 24 26 28 30 31 29 25 25 25 24 25 25 25 25 25 25 26 26 26 25 24 24 24 24 24 25 25 26 28 29 30 30 32 33 31 31 34 34 33 34 33 32 31 29 28 26
4 3 4 5 3 3 3 5 4 2 4 2 1 1 1 3 3 1 3 3 1 3 4 1 3 4 3 2 3 4 11 11 8 8 5 4 2 2 4 5 6 8 10 12 13 14 16 17 19 20 22 24 26 29 31 33 31 26 25 24 23 24 24 24 24 25 25 25 25 25 25 24 24 24 23 23 23 23 25 26 27 28 28 29 31 30 30 32 33 33 33 33 33 32 31 31 29
4 1 5 4 2 3 4 4 3 0 4 3 2 1 2 4 1 3 4 3 2 3 4 4 5 4 2 3 2 4 11 12 11 8 7 5 3 2 3 5 6 8 9 11 12 14 15 17 19 21 22 24 26 29 32 34 32 28 26 25 23 23 23 23 23 24 24 25 25 25 25 24 24 24 23 23 22 22 23 24 25 26 27 28 29 29 30 31 30 30 31 32 33 33 32 32 30
3 3 5 3 1 3 4 2 2 2 3 4 2 1 3 2 2 2 4 2 3 4 3 2 6 3 1 2 2 4 11 15 13 10 8 6 5 4 4 6 7 8 10 11 12 13 15 17 19 21 23 25 27 29 31 33 32 29 28 26 23 22 22 22 22 23 24 25 25 25 25 24 24 24 22 22 22 22 22 22 23 24 25 26 28 28 29 30 29 28 29 30 32 33 33 31 30
3 3 5 4 2 2 3 1 2 4 4 4 2 2 4 1 2 1 3 4 3 2 1 0 3 2 2 4 3 7 15 18 14 12 10 7 6 5 6 6 8 9 10 11 12 14 16 18 20 22 23 25 27 28 30 30 30 29 27 27 24 23 21 21 21 22 24 26 26 26 26 25 25 25 22 21 21 21 22 22 22 22 23 24 25 27 28 29 29 28 28 28 29 31 32 30 30
3 4 5 4 2 2 3 2 3 2 4 4 2 4 4 1 1 2 3 3 2 2 2 1 0 0 3 6 5 7 19 20 15 13 11 9 8 7 8 8 9 10 11 12 13 14 16 18 20 21 23 24 25 26 27 28 28 27 26 26 24 23 21 21 21 22 24 26 27 27 28 27 26 25 24 22 21 21 21 21 21 21 21 22 23 24 26 27 27 27 27 27 27 29 30 28 28
3 4 5 3 3 4 4 4 4 3 4 3 2 4 4 3 1 2 1 3 3 1 2 2 2 2 3 5 6 7 20 20 16 15 12 10 9 9 9 9 10 11 11 12 13 14 16 18 20 21 22 23 23 24 25 26 26 25 25 24 24 22 21 21 21 22 23 24 26 27 28 28 27 26 25 23 21 21 21 20 20 20 20 21 21 22 24 25 25 26 27 26 26 28 29 27 27
5 4 4 3 4 4 5 7 6 4 3 5 6 5 5 4 2 2 1 3 2 1 2 2 4 3 3 4 5 15 22 19 18 16 13 12 11 11 10 11 11 11 11 12 13 13 15 17 19 20 21 21 22 22 23 24 25 24 24 23 22 22 21 21 21 21 21 22 23 25 26 27 27 27 25 24 22 22 21 20 20 20 20 20 21 22 22 22 23 25 27 26 26 27 28 28 27
4 3 4 3 5 3 4 7 6 3 3 7 6 5 5 5 5 3 2 2 2 1 3 3 5 5 3 4 12 19 21 19 18 16 15 14 14 12 11 11 11 11 10 12 13 13 15 17 18 19 20 20 21 22 23 23 23 24 23 22 21 21 20 20 20 20 20 20 21 23 24 24 25 26 25 24 23 22 22 22 22 21 21 21 21 22 22 20 22 24 25 26 26 26 27 27 26
2 4 4 3 5 2 1 5 7 4 5 9 5 4 3 4 4 3 3 3 1 4 6 2 4 7 6 8 14 17 18 18 18 16 16 16 16 13 11 12 12 11 10 12 14 14 14 16 17 18 19 20 21 22 23 23 23 23 21 21 21 20 20 20 21 21 20 19 19 20 23 23 23 23 24 24 24 23 24 24 24 24 24 24 22 23 22 21 21 22 23 25 26 26 25 25 25
3 3 3 4 4 3 1 3 5 3 5 8 5 4 2 4 2 2 4 4 4 8 8 8 9 9 9 9 13 16 16 17 17 17 17 19 17 14 13 12 12 12 12 13 15 14 14 15 16 17 18 19 20 21 22 22 23 23 21 21 21 21 20 21 22 22 22 20 19 18 20 22 23 22 22 23 24 24 24 25 25 25 25 25 24 23 23 22 22 21 21 22 23 25 24 24 24
4 2 2 4 4 3 0 1 4 4 5 6 7 4 3 3 1 3 8 5 6 6 7 9 8 9 13 13 15 15 15 17 18 18 19 21 18 15 14 13 13 13 13 15 16 14 14 15 15 17 19 20 21 21 22 23 23 24 23 24 24 23 22 22 23 24 23 21 19 18 18 20 22 22 22 21 21 22 24 24 23 23 24 23 23 23 22 21 21 21 21 21 21 22 22 22 22
4 1 1 2 2 4 1 2 3 4 7 6 6 4 3 5 3 3 8 10 7 4 4 7 8 10 16 16 15 14 15 17 18 20 22 21 17 15 14 14 14 14 15 17 18 16 15 15 17 19 21 23 24 25 25 25 25 25 24 24 24 23 22 22 23 24 23 22 20 18 18 19 21 21 21 21 19 19 21 23 22 21 21 21 21 21 21 20 20 20 20 20 20 20 20 20 20
6 2 2 4 3 3 1 3 3 5 6 6 5 4 4 6 4 1 7 14 8 3 3 4 7 11 14 13 14 16 17 19 21 24 24 19 15 14 14 15 16 16 17 19 19 17 16 17 18 21 23 25 26 27 27 26 24 23 22 22 21 21 20 21 21 22 22 21 20 20 20 21 22 21 20 20 19 17 18 20 21 19 18 19 18 18 19 20 20 19 19 19 19 20 20 20 20
5 3 1 2 3 2 3 4 4 4 4 2 6 4 3 5 3 0 10 15 7 2 3 1 6 10 12 11 14 16 17 19 21 24 23 19 15 15 15 16 17 18 20 21 20 19 18 18 19 22 24 25 25 25 25 24 22 20 20 19 18 18 18 19 20 20 21 21 21 22 23 24 24 23 20 18 19 18 16 17 20 18 16 15 16 16 17 19 19 19 20 20 19 19 20 21 20
2 3 2 3 3 1 3 4 3 2 2 3 5 3 3 2 1 4 12 10 3 2 3 3 6 8 9 9 13 16 16 19 21 23 22 19 16 16 17 17 18 20 21 22 21 21 20 19 20 21 22 23 23 22 21 20 19 19 18 18 17 17 18 19 20 20 21 22 23 24 25 25 25 25 23 18 18 18 16 15 16 16 15 14 14 15 16 17 19 19 20 20 20 20 20 21 21
3 5 5 6 2 1 2 1 1 1 1 2 2 4 2 2 2 4 8 4 5 5 3 3 5 7 9 9 12 16 17 20 23 22 20 18 18 18 19 18 20 20 22 23 22 21 19 19 19 20 21 22 21 19 18 18 17 18 18 18 18 18 19 20 21 22 22 22 23 23 23 23 24 25 23 19 17 17 16 13 11 13 14 13 12 14 15 15 17 19 20 20 21 21 20 20 21
4 6 5 6 5 1 2 1 1 1 1 3 2 3 3 1 2 7 6 1 5 5 5 4 5 8 9 8 10 14 17 21 23 19 19 21 20 20 20 19 20 21 22 22 20 19 18 17 18 19 21 21 19 18 17 17 17 18 18 19 19 20 21 21 22 22 22 22 21 21 21 21 21 22 22 17 14 15 14 11 8 8 10 12 12 13 13 14 16 17 19 21 21 21 21 21 21
3 5 4 5 8 3 3 1 1 1 1 3 3 3 4 4 8 10 4 3 5 4 6 6 7 8 7 8 8 11 17 20 20 20 24 26 25 23 23 21 21 22 22 21 20 19 17 17 17 19 20 20 18 18 17 17 18 18 18 19 20 20 21 21 22 22 21 21 20 20 20 20 19 20 19 15 11 11 10 8 5 4 6 10 12 11 12 13 15 16 18 21 22 22 23 23 24
0 3 4 1 7 4 6 0 1 2 1 4 2 4 6 7 12 10 2 5 6 4 8 8 8 8 7 8 7 9 16 19 20 25 29 29 29 27 26 24 22 22 21 20 19 18 16 16 17 19 19 19 18 18 18 18 18 18 18 19 19 20 20 21 21 20 20 19 19 19 19 18 16 15 14 11 9 8 6 4 2 2 3 6 9 11 11 12 14 15 17 19 21 22 23 24 25
0 1 2 1 3 4 5 1 4 3 1 2 2 3 7 7 10 8 5 7 8 8 11 9 9 8 7 8 8 9 14 20 24 28 30 30 31 30 28 27 24 22 20 19 18 17 17 16 17 19 19 18 19 18 18 18 17 17 18 18 19 19 20 20 20 20 19 19 18 18 17 16 14 11 9 7 6 5 3 2 2 2 3 3 6 9 11 11 13 14 15 17 19 21 22 24 25
3 1 3 2 1 4 6 2 4 2 1 1 1 4 8 9 8 4 4 7 9 10 10 9 10 10 9 8 8 9 12 19 25 28 31 31 32 32 31 29 25 22 21 20 18 17 17 17 18 18 18 18 18 18 18 18 17 17 18 18 18 19 19 20 20 20 19 19 18 18 17 16 13 11 9 7 5 3 2 2 3 4 4 4 5 7 10 12 13 13 14 16 18 20 22 24 25
3 1 3 3 2 4 6 3 1 2 2 1 3 4 6 7 5 2 4 7 9 10 11 10 10 11 10 8 8 8 10 14 20 28 33 33 34 34 32 30 26 23 22 20 19 18 18 18 18 18 18 19 18 18 18 18 18 18 19 19 18 19 19 20 20 20 19 19 19 18 17 17 15 13 12 11 9 7 6 5 5 6 6 7 7 7 9 12 13 13 14 15 16 19 21 23 25
3 2 1 3 2 3 5 4 4 3 1 3 4 6 10 10 8 5 5 8 8 10 12 11 10 10 9 8 8 9 10 9 15 27 32 33 35 34 31 28 25 24 22 21 19 19 18 18 17 18 18 18 18 18 18 19 19 20 20 20 19 20 20 20 20 20 20 19 19 19 18 17 17 16 15 14 13 12 11 10 8 8 8 9 9 9 9 11 13 15 16 15 15 18 20 21 22
2 3 2 3 3 2 4 5 2 3 2 5 4 7 14 14 12 9 6 8 10 12 12 10 9 9 8 8 8 10 10 10 20 29 29 30 32 30 27 24 23 23 21 20 20 19 19 18 17 18 19 18 18 18 19 20 20 20 21 21 21 21 22 21 20 20 20 20 20 19 18 17 16 17 17 16 15 15 14 14 13 11 11 11 11 11 11 12 14 16 18 17 16 16 17 19 21
4 4 3 3 5 4 6 6 3 1 3 6 7 9 12 14 13 9 6 8 10 12 10 8 8 8 8 8 9 11 10 14 24 29 26 28 30 27 24 23 23 22 21 20 20 19 19 18 18 19 19 18 18 18 19 20 20 21 21 21 22 22 22 22 20 20 20 20 20 19 17 16 16 16 16 17 16 16 16 15 15 14 13 13 13 13 13 13 14 16 19 19 19 17 15 16 19
3 2 2 4 5 5 6 5 4 1 3 6 6 7 13 14 15 12 6 7 9 11 10 10 10 8 9 9 10 12 12 16 23 23 24 28 29 26 24 23 23 22 22 21 21 21 20 19 19 19 19 18 18 18 19 20 20 20 21 21 22 22 21 21 21 20 18 17 18 17 16 14 14 14 15 16 16 16 16 16 15 15 15 14 14 14 14 14 14 14 16 19 20 19 15 15 16
3 3 2 4 4 6 5 2 4 3 2 5 4 10 16 14 14 11 4 6 9 11 11 11 11 10 9 10 13 13 11 14 17 20 24 26 26 26 25 25 25 25 24 23 23 22 20 20 21 20 19 18 18 19 19 20 20 19 20 20 21 21 21 21 21 19 16 14 15 15 14 13 13 13 14 15 15 15 15 15 15 14 14 14 14 14 14 14 14 13 14 16 18 19 17 16 14
3 2 1 3 3 4 6 1 2 3 1 5 7 10 17 14 12 9 4 7 7 7 9 10 9 10 10 10 12 11 11 12 13 16 21 24 25 25 26 28 28 27 25 24 24 22 22 22 22 20 19 19 18 19 20 20 20 19 19 20 20 20 20 20 20 17 14 13 14 13 11 12 12 13 13 14 15 14 13 13 13 13 13 13 13 14 14 14 14 14 13 13 14 16 17 15 10
1 2 1 4 3 2 4 3 3 3 2 4 6 8 12 11 7 6 3 5 5 4 7 8 7 10 11 10 9 10 12 13 13 13 16 20 22 24 28 30 30 28 26 26 25 24 24 24 22 21 20 19 19 19 20 20 20 19 19 19 19 19 20 19 18 16 13 13 12 11 11 12 13 13 14 15 14 12 11 12 11 11 11 11 11 12 12 12 12 13 12 10 10 12 14 13 9
3 4 4 4 3 1 5 5 6 6 2 2 5 6 7 5 4 5 3 2 4 4 5 8 8 10 10 9 10 12 12 13 14 13 14 15 20 26 30 31 30 29 29 30 28 26 26 24 22 21 20 19 20 20 20 19 19 19 19 19 18 18 17 16 16 15 12 11 11 11 12 13 14 16 17 15 11 10 10 10 9 9 9 9 9 10 10 11 10 10 9 8 9 10 12 12 10
4 4 6 5 1 3 5 6 7 5 3 1 3 4 5 4 4 6 4 5 6 4 5 10 9 8 8 9 13 13 12 13 13 14 15 15 20 25 28 30 31 32 33 32 29 27 26 24 22 21 20 20 20 20 20 19 19 19 18 18 18 17 15 14 15 14 12 12 12 13 14 15 16 16 14 11 8 8 9 9 9 9 10 9 10 10 10 10 9 8 8 9 10 9 9 10 11
4 3 5 4 1 3 6 5 2 2 3 3 3 1 4 6 5 6 4 6 9 7 6 10 9 8 8 9 12 12 12 12 12 14 15 16 19 21 25 30 33 35 35 31 28 27 26 24 23 22 21 21 21 20 20 19 19 19 19 19 19 18 17 16 15 15 15 14 13 14 16 16 15 11 9 8 7 8 9 10 11 11 11 10 10 10 10 9 8 8 9 10 9 8 8 9 9
3 2 4 1 3 5 4 2 2 2 3 4 3 2 1 5 6 4 4 6 9 9 8 9 9 9 10 11 12 12 13 12 11 11 13 16 20 22 26 32 35 36 34 30 29 28 26 25 24 22 22 22 21 21 20 20 20 20 20 20 19 19 19 19 18 16 15 14 14 15 16 16 11 8 8 7 8 9 11 11 11 10 9 8 8 8 8 7 8 9 10 8 8 8 9 10 9
4 4 2 3 3 3 2 3 3 2 3 4 4 2 1 6 6 3 3 4 7 9 9 10 9 9 10 11 12 13 13 12 11 11 13 16 21 25 29 31 32 34 32 30 29 27 26 25 24 23 23 23 22 22 21 21 21 21 20 20 20 20 19 19 18 16 15 15 16 16 16 14 10 8 8 8 10 11 11 11 9 9 8 8 8 8 7 8 9 10 9 8 8 9 10 11 12
4 1 0 1 3 2 3 4 3 1 3 3 4 2 1 5 6 3 2 1 5 8 8 8 9 9 9 10 11 12 11 10 10 11 15 20 23 26 27 27 29 31 31 30 29 27 26 25 24 25 25 24 23 23 22 22 22 21 21 21 22 22 21 20 19 19 19 18 18 17 15 13 10 9 9 10 12 12 11 10 9 9 9 9 8 8 9 10 10 10 10 9 10 11 12 12 12
5 5 3 3 4 3 3 2 2 3 3 5 5 2 2 3 6 4 2 2 5 6 7 8 9 9 10 10 10 11 10 9 9 9 14 21 24 23 23 26 30 31 30 29 28 28 27 26 26 26 26 25 24 24 23 23 23 23 23 23 23 23 22 21 20 20 19 17 16 15 14 13 11 10 11 12 12 11 10 10 10 10 10 10 10 10 11 11 11 11 11 11 11 12 12 12 12
3 3 2 3 3 3 3 4 4 3 3 5 4 2 1 2 6 5 5 6 5 6 7 10 10 11 11 10 9 10 9 9 9 8 11 14 17 19 22 26 29 29 29 30 30 29 28 28 28 27 27 26 26 25 25 25 25 24 24 24 24 24 23 22 21 20 17 16 16 15 13 13 12 12 12 13 12 11 11 11 11 11 11 11 11 12 12 11 12 12 12 13 13 13 13 13 13
4 3 4 4 4 4 3 4 2 1 4 3 1 3 1 5 9 9 10 11 9 8 9 10 11 11 11 11 10 8 7 8 8 8 9 9 11 16 21 25 27 28 30 32 32 31 30 29 29 29 29 28 27 27 27 27 26 26 25 25 25 24 23 23 23 22 19 17 16 15 14 13 13 14 13 13 13 12 12 13 12 12 12 12 12 12 13 12 12 12 13 13 14 14 14 14 15
4 2 3 2 2 4 4 4 2 3 4 2 1 2 3 5 7 9 12 12 10 8 8 9 10 11 12 12 10 9 9 9 9 9 9 8 11 17 21 24 26 29 32 33 32 32 31 30 30 30 30 29 28 28 28 28 28 27 26 25 25 24 23 23 23 23 21 20 19 17 16 15 14 15 15 14 14 13 13 13 13 13 13 13 13 12 13 12 12 13 13 14 14 14 14 15 15
1 2 3 2 3 2 3 3 2 4 5 4 2 1 3 3 4 7 9 9 9 7 7 7 9 11 11 10 10 11 11 11 9 9 10 11 16 20 22 24 27 30 32 32 32 32 31 31 31 31 31 30 29 29 29 29 29 28 26 26 25 25 25 25 24 23 22 22 22 19 18 17 16 17 16 15 15 14 14 13 13 13 13 13 12 12 13 13 13 14 14 14 15 14 14 15 15
1 2 3 0 3 4 2 3 3 1 3 4 2 3 5 4 9 10 5 6 7 6 6 6 9 11 7 8 11 11 11 11 9 9 11 14 19 22 23 25 27 29 30 31 33 33 33 33 32 32 32 31 30 30 30 30 29 28 27 26 26 25 25 24 23 21 20 21 21 20 20 19 18 18 17 16 15 14 14 14 14 14 13 12 13 14 15 15 15 15 15 16 16 15 15 16 16
0 1 2 3 3 5 3 1 1 4 1 4 2 4 5 4 8 9 5 6 6 6 6 7 9 10 7 8 11 10 10 11 10 10 11 13 17 21 24 26 28 29 30 33 35 35 35 34 33 32 32 31 31 31 30 30 29 28 28 27 26 26 26 25 23 21 20 22 22 22 22 21 20 18 17 16 16 15 15 15 14 14 13 13 15 15 16 16 16 16 17 17 17 16 16 17 17
2 1 3 2 2 4 3 1 3 3 1 4 2 4 5 3 4 6 6 6 8 8 8 8 9 9 8 10 11 11 12 11 11 11 11 13 16 20 24 27 30 32 33 34 36 36 35 34 34 33 32 32 32 31 31 30 29 28 28 27 26 26 27 26 25 24 23 23 22 21 21 21 20 18 17 17 16 16 16 15 14 14 15 15 16 16 16 16 16 17 18 18 17 17 17 18 19
2 2 2 2 1 1 1 0 2 2 3 5 5 5 4 4 5 5 5 7 9 10 9 9 10 10 9 10 11 12 12 10 11 11 10 11 15 21 24 27 30 32 33 35 35 34 34 34 34 34 34 34 32 31 31 31 30 29 28 28 27 26 26 26 25 24 23 22 21 20 20 20 20 19 18 17 17 16 16 15 15 16 16 16 16 16 16 17 17 18 18 18 17 17 18 19 19
3 1 1 2 2 3 1 1 2 1 3 4 5 5 4 6 6 5 7 10 10 11 9 8 10 11 10 11 11 12 11 10 10 11 11 11 15 22 25 26 29 30 32 33 33 33 34 34 34 35 35 33 32 32 32 31 31 30 29 28 27 26 25 25 25 25 23 22 22 20 20 20 20 20 19 18 17 17 17 17 17 18 17 17 18 18 17 17 17 18 18 18 17 16 17 19 19
2 1 1 1 1 1 0 0 2 3 2 2 2 5 8 6 4 6 9 12 11 11 9 8 10 11 12 12 12 12 12 12 12 11 12 12 15 22 25 26 28 28 29 31 32 33 34 34 34 35 35 34 33 33 33 32 31 30 29 29 28 26 25 25 25 25 24 24 23 22 22 22 22 21 20 19 19 19 19 19 19 19 19 19 19 19 18 18 17 18 18 18 18 18 18 19 19
4 4 4 3 3 3 1 3 2 2 2 4 2 6 12 5 4 6 9 9 10 10 8 9 11 13 13 13 13 13 12 12 13 13 13 12 14 20 22 23 24 25 27 30 31 32 33 34 35 35 35 35 35 35 34 33 32 31 30 30 28 26 25 24 25 25 25 25 25 24 24 23 23 23 22 21 21 20 19 19 20 20 20 20 20 20 19 18 17 17 17 17 17 17 18 19 19
Wind_Direction
0 2 356 1 357 18 31 46 71 356 74 68 8 47 336 315 25 44 4 338 98 34 356 13 29 38 68 98 125 130 65 111 161 110 200 223 90 9 3 2 358 356 359 3 6 9 14 18 13 13 15 14 15 14 14 14 15 15 15 14 13 10 6 4 3 1 0 358 359 2 1 3 3 4 3 4 8 5 6 3 339 316 293 279 276 280 281 274 269 262 254 245 240 239 240 243 243
359 2 355 15 32 69 12 47 93 357 55 60 341 90 306 335 32 21 309 293 112 143 152 58 64 63 74 94 113 101 39 358 297 126 102 90 180 354 8 8 2 4 6 7 8 9 16 19 14 15 17 16 17 16 16 15 15 15 15 15 14 12 9 5 4 2 359 357 356 358 358 359 1 2 360 3 4 360 5 4 358 359 344 315 289 277 282 278 273 269 260 255 244 239 239 238 240
359 353 5 42 45 59 75 39 86 61 67 94 309 292 335 23 30 324 312 352 129 140 149 44 62 49 50 59 39 63 57 334 15 115 61 39 166 357 13 12 11 13 11 9 9 11 20 20 14 17 17 17 18 17 17 16 16 14 13 14 14 14 12 9 6 3 359 356 355 356 355 355 358 0 358 0 1 358 1 359 358 3 12 6 336 295 283 283 279 276 265 260 254 245 240 240 241
21 4 29 76 52 37 60 45 95 106 95 145 245 294 45 123 168 251 346 38 131 128 95 24 40 359 44 75 14 39 105 318 5 149 152 40 53 23 21 20 18 15 11 9 9 10 22 22 14 18 17 17 17 16 17 15 15 14 13 11 11 12 12 12 10 7 3 358 355 354 354 355 356 356 355 357 359 356 357 357 355 1 14 10 2 355 320 303 287 282 269 259 260 255 248 245 242
53 55 67 82 74 39 78 72 84 87 134 170 144 264 129 156 156 123 15 23 37 11 24 90 68 320 46 90 30 74 243 298 32 126 127 78 72 42 26 21 16 10 10 10 11 8 18 22 16 18 18 17 16 15 15 14 14 13 12 10 9 9 9 10 10 9 7 3 359 356 355 355 355 354 353 353 352 352 355 355 353 1 9 2 3 8 4 354 322 298 282 268 264 259 255 252 246
66 61 63 70 84 110 77 72 76 70 159 162 134 203 151 153 151 136 110 44 40 26 50 80 115 146 49 331 78 102 283 282 130 133 145 135 103 48 26 20 12 8 12 11 12 11 18 23 18 17 17 16 16 15 14 13 12 11 11 10 9 7 7 7 7 7 6 5 1 359 357 355 355 355 353 351 348 347 350 350 352 359 3 360 359 3 8 11 7 354 324 294 276 266 260 257 251
70 47 50 65 58 45 76 81 89 79 50 131 134 169 141 158 160 134 114 104 40 23 44 66 108 114 72 294 159 2 326 235 190 161 169 139 103 47 28 17 7 6 12 10 12 13 16 21 18 17 16 15 15 14 13 12 11 10 9 8 8 6 5 5 4 4 3 3 2 1 358 357 357 355 352 351 349 344 343 343 347 354 356 356 358 0 4 7 11 10 7 355 319 285 270 263 257
65 50 28 68 45 33 84 81 69 153 31 43 95 64 74 184 160 113 13 192 90 16 41 165 82 85 329 8 192 318 26 155 161 158 165 133 105 43 21 4 360 5 10 9 12 13 13 16 15 15 15 14 12 12 11 11 10 9 8 7 7 6 5 3 3 3 2 1 1 1 359 358 357 354 352 351 350 346 345 340 341 348 349 351 355 358 0 4 7 8 10 7 3 354 314 285 267
59 51 59 71 76 55 65 66 37 169 8 9 32 18 3 21 122 113 90 65 113 68 343 251 52 86 209 47 227 278 88 146 149 153 154 132 103 29 6 357 359 3 8 8 11 10 10 11 10 11 11 10 9 8 7 7 8 7 7 6 6 5 4 2 2 2 2 1 1 0 359 359 358 356 353 353 351 347 346 342 341 344 345 346 350 354 357 1 5 7 8 5 7 9 3 354 311
46 33 91 78 77 73 55 93 42 90 1 14 40 357 355 19 88 97 100 96 121 80 327 251 75 109 136 114 221 275 198 169 157 157 149 146 111 24 355 356 359 2 6 6 9 7 6 6 5 6 5 5 3 3 3 2 3 4 4 5 5 5 5 3 2 2 2 2 1 0 359 359 360 359 355 354 353 348 347 345 343 343 343 342 344 351 355 359 4 5 5 4 4 5 6 8 4
44 5 88 81 68 102 147 165 156 183 272 8 31 347 0 39 80 56 79 121 128 123 192 67 77 138 110 198 244 237 185 172 168 169 160 164 151 0 343 353 356 0 3 4 6 3 3 2 1 1 359 359 358 358 359 359 359 359 358 0 2 3 4 3 2 2 1 2 0 360 359 359 358 359 358 356 354 352 350 348 345 343 343 342 341 345 351 356 0 2 3 3 1 1 2 4 11
76 348 62 79 93 158 176 154 177 216 318 348 69 322 43 52 71 105 111 130 138 145 219 255 147 146 94 283 258 181 180 184 188 179 175 184 205 300 330 341 347 351 356 359 359 359 0 360 358 357 356 355 354 355 355 356 358 356 353 355 359 1 2 3 3 2 1 360 359 359 358 359 357 356 357 357 355 353 351 349 348 345 343 344 343 342 347 351 355 358 0 1 360 359 360 2 10
103 128 80 82 124 131 134 137 189 203 332 273 190 276 75 64 101 184 128 111 148 151 261 238 158 114 119 251 288 187 196 202 196 186 192 198 225 270 314 322 334 341 346 350 351 354 356 356 356 354 353 352 351 352 353 354 356 355 351 352 355 358 0 2 3 2 1 359 358 357 356 356 356 356 356 355 356 353 351 349 349 347 343 343 345 344 345 347 349 355 357 358 359 359 358 1 7
119 150 94 101 82 103 134 123 199 168 266 251 211 357 61 79 191 178 129 135 201 180 277 207 144 112 140 240 308 231 206 200 193 191 197 203 227 258 292 308 324 332 337 340 344 349 352 353 353 353 352 351 349 350 350 350 353 354 351 350 350 354 357 360 2 1 360 359 358 357 354 351 352 355 355 354 356 355 354 353 349 347 344 343 344 345 346 346 345 348 352 355 357 357 357 359 5
118 137 80 104 73 78 157 159 164 160 231 227 171 86 75 99 184 165 170 168 225 228 326 90 132 160 183 178 230 230 199 191 190 192 197 210 230 257 279 296 311 319 326 332 340 344 348 349 349 350 349 349 348 348 347 347 349 351 350 349 348 350 353 355 358 359 360 360 359 358 354 349 348 353 356 356 355 355 356 356 353 349 347 344 344 345 346 346 345 345 347 351 353 354 353 356 3
109 114 68 94 127 161 186 167 124 134 242 216 140 103 90 272 165 160 223 164 195 347 16 223 348 289 188 188 248 230 190 186 186 191 199 214 232 251 268 288 300 309 317 325 333 336 341 343 344 346 345 345 344 344 343 344 345 346 347 346 345 346 349 351 353 355 359 1 1 360 357 353 349 350 356 358 356 355 355 356 356 354 351 348 346 342 339 342 344 345 345 348 349 349 348 351 360
60 80 69 89 156 193 184 164 167 169 231 220 162 131 130 265 293 163 258 94 159 334 3 240 294 306 218 241 278 199 179 180 183 191 202 214 232 245 262 283 293 308 319 325 326 327 333 337 340 340 341 341 340 340 339 339 341 341 343 343 342 343 344 346 348 351 356 1 1 360 360 357 353 350 353 357 356 354 354 355 356 356 355 352 350 341 334 336 340 341 340 342 342 340 342 345 354
52 77 89 130 175 193 174 174 189 166 182 194 190 172 159 215 231 170 90 47 61 322 320 310 315 300 261 253 188 168 171 177 184 192 203 215 231 242 263 283 291 308 322 326 320 320 327 332 337 337 338 339 338 338 336 336 336 337 338 338 338 338 340 341 342 346 351 357 358 357 358 358 355 351 350 353 355 354 354 355 355 355 353 353 351 343 337 334 332 333 334 334 333 332 335 341 348
77 102 92 171 194 187 170 170 178 180 175 173 187 184 178 213 189 153 192 251 12 258 262 321 317 292 262 181 159 164 172 179 188 196 207 219 231 243 267 283 288 301 316 321 314 314 326 332 336 337 337 338 337 336 334 333 332 332 333 334 334 334 336 336 336 337 342 348 352 353 352 354 354 351 349 347 349 350 352 352 351 350 348 350 349 343 341 338 330 326 328 330 330 329 331 338 344
96 105 88 197 203 178 202 180 180 204 155 153 188 182 201 242 176 160 193 190 236 227 222 206 247 241 212 187 171 170 179 187 195 202 213 227 236 246 265 277 286 296 305 309 306 310 325 332 334 336 336 335 334 333 331 329 328 328 328 329 328 328 329 327 326 328 332 336 343 347 346 347 348 348 347 344 343 345 349 350 349 348 345 346 347 344 343 342 338 330 325 326 330 334 335 337 341
76 82 124 179 168 117 287 202 174 172 132 149 161 128 230 243 170 197 161 147 251 242 219 199 211 208 194 198 188 182 189 197 204 211 220 231 238 249 262 273 282 290 294 296 299 308 322 331 332 332 331 330 329 327 325 322 320 321 320 320 318 317 317 316 317 320 325 327 332 338 339 341 341 341 342 342 341 340 344 348 349 350 348 346 346 346 346 344 344 342 335 329 331 337 339 339 340
65 9 168 161 145 122 2 145 137 115 89 113 135 150 212 172 176 202 166 183 230 228 217 209 213 192 184 192 191 191 199 206 211 215 222 229 239 252 262 272 278 283 286 287 294 304 317 327 327 323 322 322 321 318 315 312 312 312 312 311 310 310 310 310 313 316 321 322 322 327 331 333 334 334 334 335 337 336 338 342 347 350 350 350 348 346 348 347 346 347 347 343 339 338 340 340 341
92 15 0 11 119 129 103 121 135 103 107 140 161 185 155 136 267 207 183 225 220 207 224 224 231 198 186 185 185 193 204 211 213 215 220 228 241 255 264 272 276 281 282 284 291 299 312 320 317 315 315 316 316 314 311 308 309 309 308 308 309 310 310 311 314 317 320 320 317 318 323 325 325 326 327 327 328 331 333 335 341 348 350 351 351 349 348 350 349 348 349 351 349 346 343 340 339
88 115 349 4 67 89 48 133 118 94 138 190 161 132 144 177 247 80 209 237 229 251 294 247 226 191 183 183 188 200 207 211 214 217 223 230 244 258 266 272 274 277 277 282 290 298 305 308 309 310 311 313 314 314 312 311 311 310 309 309 310 311 313 315 317 319 319 318 317 315 316 317 316 315 318 320 319 321 325 327 333 342 350 352 352 353 351 353 354 352 350 350 352 354 352 346 341
71 125 199 57 51 46 55 85 81 97 155 187 127 144 231 204 210 316 236 242 240 288 3 143 175 169 179 192 200 206 212 217 219 223 227 233 246 258 264 269 273 273 275 282 289 294 296 298 304 307 310 313 314 314 312 311 311 311 311 311 312 313 314 317 318 319 318 317 316 315 315 313 311 307 306 311 311 311 315 319 323 332 346 353 354 358 357 356 357 357 356 353 353 354 356 355 349
120 117 138 94 51 24 52 66 76 98 137 110 138 204 282 246 247 262 247 242 212 113 72 123 152 170 191 202 210 209 215 222 222 227 232 235 242 252 261 268 270 272 276 280 283 287 289 295 303 307 311 314 313 311 309 307 307 309 310 311 312 314 315 317 318 318 318 318 316 315 313 312 310 305 299 301 305 303 307 313 314 321 336 351 358 2 2 357 356 357 359 358 356 355 356 357 354
121 99 97 78 46 313 24 72 135 43 129 132 196 249 269 301 312 260 261 239 138 127 132 173 172 195 207 210 218 216 221 225 225 229 238 242 241 248 260 267 269 273 276 276 280 284 287 294 301 307 310 311 309 307 304 301 302 304 306 308 309 312 314 316 317 317 317 317 317 316 314 311 309 305 298 298 302 299 302 312 313 314 324 343 359 1 1 359 356 356 358 358 358 357 355 354 353
95 102 90 23 2 9 65 131 215 311 168 153 162 256 260 342 251 241 261 183 140 158 187 210 208 215 217 218 227 226 230 231 230 232 239 243 242 249 259 266 269 272 273 275 281 284 286 291 297 304 307 306 305 302 299 297 298 300 301 304 306 309 312 313 314 314 315 316 317 317 318 316 312 308 301 297 298 297 303 313 319 318 315 329 348 355 356 357 356 354 354 355 355 354 352 352 350
86 91 88 340 1 355 251 200 205 225 179 170 143 296 264 192 226 246 259 153 138 163 208 223 223 228 227 226 235 235 237 238 237 237 239 242 246 252 258 264 267 267 270 276 281 281 282 287 293 301 303 301 300 298 295 295 296 298 299 302 306 308 310 311 310 310 311 313 315 317 319 319 316 310 303 294 286 291 305 315 319 323 310 315 330 344 352 354 356 354 351 350 352 351 349 349 348
72 55 91 321 360 321 248 152 102 146 175 181 133 305 271 221 235 248 222 155 141 186 225 227 225 231 233 232 238 242 241 240 239 240 241 244 248 252 257 261 263 265 271 275 275 275 277 283 291 298 299 297 297 296 293 293 295 297 299 303 305 307 308 308 307 306 306 307 310 313 316 319 317 312 304 292 280 282 297 311 312 324 321 312 317 332 347 353 355 355 355 350 347 349 348 348 346
90 26 69 51 349 273 247 188 149 144 180 160 101 271 270 271 259 244 193 168 166 207 227 226 229 230 233 235 236 244 245 241 242 244 245 247 249 252 256 260 262 265 270 270 268 269 273 281 290 294 293 293 295 293 291 293 296 297 300 303 304 304 305 305 304 302 302 303 305 307 310 315 316 315 311 300 290 286 289 305 338 349 348 323 311 321 335 347 353 354 356 352 347 346 345 345 345
34 353 318 342 212 262 293 268 172 149 1 25 97 251 273 280 277 263 188 177 186 216 231 227 231 233 233 238 238 244 251 248 249 250 249 249 250 253 255 258 261 264 266 264 263 264 269 279 287 289 288 291 293 290 290 293 296 298 300 302 302 302 303 303 302 300 299 299 300 302 304 306 307 312 319 320 318 317 317 329 342 343 337 335 323 317 323 336 350 352 353 353 348 345 343 341 342
0 56 269 271 225 286 318 323 328 55 75 332 221 241 281 272 275 290 175 187 201 222 240 234 231 237 234 237 240 244 254 255 255 252 250 249 251 253 255 258 261 262 261 258 258 261 268 278 283 283 284 288 290 286 289 293 296 299 300 302 301 301 302 302 301 299 298 297 297 300 302 301 299 301 309 315 318 321 322 322 331 331 327 333 334 329 325 327 339 346 348 352 348 343 342 339 339
324 27 276 261 238 279 313 313 336 24 122 243 222 229 257 261 267 269 204 195 205 225 240 237 234 238 236 238 242 244 248 252 252 249 248 248 250 253 256 259 260 256 253 252 254 260 269 275 276 277 281 284 284 284 289 294 297 300 301 301 302 303 303 301 300 297 296 297 297 298 301 301 298 298 301 304 307 309 311 312 317 324 325 329 332 336 334 324 327 334 340 347 346 341 339 338 337
241 275 280 304 288 251 279 279 305 21 279 244 237 248 258 264 265 260 232 197 205 228 236 240 242 239 241 241 241 245 246 248 250 249 248 249 251 254 257 257 252 246 245 247 253 260 266 268 270 272 276 278 279 284 291 294 297 299 299 300 302 303 303 301 298 296 294 294 296 298 300 302 299 298 300 301 302 302 303 304 306 312 318 322 325 329 333 329 326 326 331 337 339 341 338 335 334
200 236 216 260 288 266 255 260 254 23 301 261 241 252 265 274 272 260 236 199 209 234 241 248 250 244 245 243 242 246 245 247 251 253 252 252 252 254 254 249 242 240 242 245 251 257 260 262 265 267 271 275 277 284 291 293 295 296 297 300 302 303 304 303 301 297 292 289 292 296 298 300 298 297 298 298 299 299 299 299 300 303 307 312 317 320 325 331 331 326 326 328 331 335 336 334 334
157 152 189 245 268 273 269 273 276 312 308 265 242 271 278 277 278 270 232 195 217 237 243 250 248 246 244 242 246 245 243 250 257 261 257 253 253 253 247 239 235 235 237 241 247 252 255 258 261 264 269 272 276 285 290 291 293 295 298 300 303 304 304 305 304 302 294 286 287 291 294 294 292 293 295 296 297 296 296 295 296 298 300 304 309 314 317 321 326 326 324 323 325 329 331 335 336
111 156 216 271 249 263 283 273 285 354 2 273 301 310 290 280 283 279 203 183 225 228 231 245 245 247 248 243 249 248 249 259 263 262 256 252 250 245 237 231 231 231 234 240 246 250 252 254 258 262 268 271 278 286 287 289 291 293 296 298 301 301 302 303 303 301 295 285 283 286 289 284 284 290 294 297 298 296 295 292 293 295 297 301 303 307 311 315 319 322 325 324 325 325 324 330 339
106 155 187 286 258 281 305 315 325 6 356 290 333 319 292 288 287 280 205 199 236 225 224 241 244 249 249 242 248 253 260 264 261 257 254 250 245 238 230 227 229 232 236 242 245 247 248 251 256 261 266 271 279 285 285 287 289 291 293 295 297 297 298 300 298 296 288 279 280 283 279 272 280 290 294 300 301 298 295 291 292 293 295 300 302 304 308 313 317 319 325 327 325 323 320 326 339
167 212 239 280 293 0 297 313 348 304 241 278 307 296 285 295 303 296 255 225 268 270 243 248 242 245 251 249 252 253 256 260 259 259 253 246 240 231 225 226 228 230 235 239 239 241 246 250 256 261 266 272 279 282 283 285 286 289 291 291 293 293 294 294 291 289 278 272 277 276 268 269 281 292 297 302 301 296 294 292 293 293 295 299 300 304 308 312 316 317 322 325 326 327 323 322 321
268 218 200 239 273 221 243 295 327 312 295 250 290 297 286 311 334 305 314 309 288 285 270 267 249 243 256 265 261 250 248 254 258 261 255 241 232 229 226 226 228 229 234 237 238 242 247 252 257 261 265 271 276 278 279 281 282 285 288 289 290 289 287 284 281 279 270 267 270 266 265 272 285 295 298 296 291 289 291 292 293 291 295 297 296 301 304 308 312 315 316 315 322 324 319 315 308
308 241 205 201 260 265 267 310 334 346 351 274 354 348 296 313 312 276 314 346 306 293 276 271 264 254 252 257 259 254 251 251 251 256 258 245 234 232 230 228 227 229 234 237 240 245 249 253 256 259 264 269 272 274 276 277 278 280 283 283 284 283 276 270 270 269 268 267 267 267 271 280 289 294 292 282 275 283 287 288 291 291 294 294 294 299 300 304 306 305 308 310 318 318 313 315 312
326 262 192 166 48 302 286 302 342 356 297 295 43 73 270 308 300 278 328 332 302 298 275 267 269 262 247 244 253 256 255 253 250 252 255 249 240 232 229 229 227 229 235 238 242 245 247 251 255 258 262 265 268 271 273 272 272 275 276 276 276 274 269 267 268 268 270 269 266 271 278 286 290 286 278 269 269 281 285 289 292 292 293 293 295 298 297 300 299 298 307 312 313 309 309 315 317
287 217 140 153 297 281 268 225 185 242 282 324 13 111 223 293 279 287 340 320 302 303 286 274 268 259 252 248 250 251 251 251 250 251 250 246 241 233 232 232 230 231 235 238 240 243 247 250 254 257 258 261 264 267 269 267 267 269 272 273 271 268 266 269 271 271 268 263 264 272 280 287 285 270 264 265 270 283 288 292 294 292 292 292 294 296 296 295 294 297 306 310 302 295 300 307 310
262 197 160 296 280 240 191 147 180 272 345 325 319 48 110 272 273 320 354 316 301 294 280 275 269 261 257 254 253 252 252 250 247 249 250 247 242 238 238 237 235 234 236 238 241 245 248 250 252 253 253 256 261 264 265 263 262 265 267 268 267 266 267 269 270 266 259 260 268 273 279 283 276 261 256 260 274 286 290 289 290 291 291 291 292 292 288 286 289 296 302 302 292 289 293 297 299
278 246 242 23 60 84 98 116 153 32 9 268 271 7 33 275 285 316 352 278 267 270 268 265 264 265 261 258 259 257 256 255 248 245 249 250 248 246 244 242 239 238 238 240 242 244 246 246 247 247 249 254 259 261 261 259 258 259 261 263 265 267 268 267 265 262 261 265 269 270 272 274 269 262 256 261 276 285 285 284 285 288 289 289 286 280 277 282 287 291 294 293 286 286 291 291 292
328 356 350 35 46 47 64 83 103 64 334 257 254 330 58 299 287 265 237 233 225 243 274 278 273 275 268 260 259 259 258 257 253 249 252 253 253 253 249 244 241 240 238 238 239 240 242 242 243 244 249 254 256 257 256 255 255 256 259 262 264 265 266 264 261 261 264 263 260 260 263 265 264 261 259 265 276 279 278 279 281 284 286 283 278 276 279 282 286 287 287 287 284 283 286 286 285
19 25 359 358 349 18 28 352 43 74 280 262 259 293 118 232 269 249 242 258 231 226 260 275 276 278 275 269 264 261 260 261 261 258 254 255 254 250 243 241 240 237 234 234 234 236 237 239 240 241 247 251 252 254 253 252 253 254 258 260 262 263 263 259 258 259 259 253 250 253 255 257 257 256 258 264 270 270 271 275 279 280 281 280 279 280 282 283 284 286 284 282 282 280 280 280 278
34 43 37 18 349 3 2 329 2 201 249 237 237 309 254 228 254 260 265 271 254 229 234 249 262 269 272 274 272 271 271 267 264 260 257 253 248 243 236 236 236 232 231 232 232 233 234 236 237 239 245 249 249 250 249 249 251 252 255 258 260 261 259 255 256 258 256 250 248 249 247 246 247 249 254 260 264 264 266 271 274 276 277 279 280 281 282 284 283 283 282 280 279 277 276 275 272
25 63 81 73 45 13 319 295 315 283 270 256 245 309 288 269 266 244 246 261 257 241 238 242 252 260 265 273 280 285 281 268 260 257 257 252 244 241 237 235 234 231 232 232 230 231 232 234 236 238 244 247 246 246 246 247 249 251 254 256 258 258 254 253 254 255 253 251 250 249 246 242 242 248 254 258 261 263 265 267 269 273 277 279 280 281 281 282 281 280 279 277 276 275 273 272 271
36 156 125 120 137 141 263 252 260 289 295 291 295 264 213 249 280 231 226 257 268 259 256 255 258 259 263 278 284 281 276 269 261 255 254 252 248 245 241 238 235 234 233 231 231 231 231 233 235 238 242 244 243 243 244 245 247 251 253 253 255 255 252 252 253 253 252 252 251 250 247 244 244 251 257 260 261 262 264 265 266 270 275 277 277 279 279 280 280 278 277 274 272 272 271 270 269
319 158 108 126 172 151 193 204 189 246 318 292 266 237 213 233 281 277 273 287 285 276 268 265 267 267 271 280 277 273 272 270 263 256 254 253 251 247 243 241 238 236 234 232 231 230 230 232 235 238 242 243 241 241 243 245 248 250 251 251 253 252 250 249 249 248 246 246 248 248 247 247 250 255 259 258 259 261 261 261 265 270 272 272 273 277 281 281 281 278 276 274 271 269 267 265 265
54 116 184 230 168 121 115 256 9 74 14 283 258 260 283 313 293 294 330 325 307 308 292 274 270 279 288 278 273 273 271 270 266 258 256 256 255 250 245 242 240 237 234 232 232 231 231 233 234 237 239 239 239 240 242 244 246 247 249 249 250 249 248 247 246 243 242 243 245 247 249 251 253 255 255 256 258 260 259 260 265 266 264 267 274 279 281 281 281 279 275 273 271 269 266 264 263
106 172 223 215 107 90 98 302 346 44 228 273 286 273 293 332 294 308 343 325 303 297 292 288 285 287 285 274 272 274 272 273 272 267 262 260 259 254 248 245 242 239 236 235 234 233 233 234 235 235 236 236 237 239 241 242 243 244 247 248 248 248 249 249 247 245 244 245 246 245 247 250 252 251 251 255 259 260 260 260 259 260 263 270 276 278 280 282 282 280 277 274 271 269 266 264 263
106 193 191 90 139 239 42 116 322 346 291 281 294 292 267 216 237 284 304 296 292 288 285 289 288 286 286 284 282 282 282 283 281 276 271 264 260 257 253 249 246 243 240 239 237 234 233 233 234 235 236 237 238 239 240 240 241 242 245 247 247 248 249 250 248 245 242 243 243 241 244 247 248 250 252 255 258 257 258 257 256 261 267 272 274 276 280 283 284 281 278 275 271 268 265 264 263
42 42 17 33 153 179 184 145 168 225 277 288 311 319 270 225 212 213 258 279 286 284 282 282 282 286 291 293 293 292 292 291 287 283 279 272 266 263 259 254 252 248 244 241 237 234 232 232 232 233 234 235 236 237 237 238 240 241 243 245 246 247 248 248 246 243 241 241 241 240 242 245 247 250 253 254 254 254 256 258 260 264 269 271 273 276 280 284 285 281 277 274 271 267 264 263 262
88 98 249 318 112 140 235 247 144 143 190 232 304 304 270 242 192 206 255 277 278 274 276 277 283 291 294 294 295 297 297 295 294 290 286 282 277 274 269 263 259 254 248 243 238 234 233 231 229 230 230 230 231 234 235 236 237 238 240 243 245 247 249 248 245 242 241 241 242 241 243 246 249 251 252 253 253 254 257 259 262 265 269 270 272 275 279 282 282 279 275 272 268 266 263 262 261
159 177 198 183 142 118 90 289 281 110 171 191 167 285 277 260 153 217 252 267 273 279 283 285 292 295 296 297 296 297 299 297 296 294 293 291 286 283 278 270 262 254 249 244 239 235 233 230 228 227 227 228 230 232 233 234 235 235 237 240 243 246 247 246 243 241 241 242 243 244 246 249 251 252 253 254 254 255 256 258 262 266 268 269 270 273 276 276 273 270 268 267 264 262 260 259 259
Height
803 803 802 802 801 800 805 806 825 847 852 864 872 872 869 869 871 869 872 875 876 884 887 883 882 878 877 875 879 887 889 888 885 880 877 891 898 894 896 892 892 891 889 888 886 885 883 882 882 880 878 877 875 874 872 870 869 867 865 863 862 861 860 859 858 857 856 855 854 853 852 850 849 847 846 843 837 838 836 834 835 832 830 829 828 828 827 825 824 823 822 821 820 820 819 819 819
803 804 802 803 801 801 813 816 836 858 858 868 875 874 872 869 871 873 878 878 878 885 887 885 884 883 884 885 887 887 890 894 894 892 892 896 895 895 895 892 893 891 890 889 886 886 883 884 883 881 880 878 876 874 873 871 870 868 866 864 863 861 860 859 858 857 856 856 854 853 852 851 850 848 847 843 839 839 835 834 835 831 829 827 827 826 826 825 823 822 821 820 819 818 818 818 818
804 804 803 803 803 806 818 823 844 864 863 872 875 873 873 872 875 880 884 882 882 885 886 885 883 887 888 886 887 886 890 896 895 895 895 895 895 895 894 894 893 891 891 888 887 886 884 885 883 882 880 879 877 875 874 872 871 869 867 866 864 862 861 860 858 858 857 856 855 853 852 852 850 848 848 844 841 840 837 836 835 832 827 826 827 824 824 823 822 822 820 819 818 817 816 816 816
805 803 803 803 807 814 827 840 857 867 869 877 877 872 874 877 881 884 886 884 885 886 885 885 885 891 889 886 890 891 893 896 895 895 895 895 895 895 895 894 893 892 890 888 888 886 885 885 884 883 881 880 878 876 875 873 872 870 869 867 866 864 862 861 860 859 858 857 856 854 853 852 850 849 848 845 843 843 841 837 837 833 827 827 827 824 823 821 820 820 819 819 817 816 815 815 815
806 804 804 802 813 826 838 856 867 868 871 876 874 873 875 880 883 884 887 886 887 887 886 886 888 892 892 892 895 893 894 896 895 895 895 895 895 895 895 894 893 892 890 889 887 886 885 885 885 883 881 880 878 877 875 874 873 871 870 868 867 865 864 862 861 860 858 857 856 855 854 852 851 849 849 846 845 845 843 840 838 834 829 830 828 824 822 820 819 818 818 818 816 815 814 814 813
807 805 806 806 821 834 844 862 871 871 873 874 871 873 876 879 884 886 888 888 888 888 887 886 887 891 894 896 896 895 896 896 895 895 895 895 895 895 894 894 893 891 890 889 887 887 885 885 885 883 882 880 879 878 876 875 873 872 871 869 868 866 865 864 862 861 859 858 857 855 854 852 850 849 849 847 846 845 843 842 840 835 832 833 830 826 822 820 818 817 817 815 815 814 813 812 811
806 808 813 816 830 842 856 869 872 873 874 875 873 874 877 879 884 885 887 886 886 888 888 889 890 889 892 896 896 896 896 895 895 894 894 894 895 894 894 894 892 891 890 889 887 886 885 885 884 883 882 880 879 877 876 875 874 873 871 870 868 867 866 864 863 862 860 859 858 856 854 852 850 849 849 848 846 845 843 843 841 838 836 835 832 828 824 821 819 817 816 814 814 812 811 811 810
807 814 823 827 843 855 866 873 873 876 875 876 878 878 880 882 884 883 885 886 885 890 890 891 893 886 890 898 895 896 896 895 895 894 895 894 894 894 894 893 892 891 889 889 887 886 885 884 883 883 881 880 879 877 877 875 874 873 872 871 869 868 866 865 864 862 861 860 858 856 854 852 850 849 849 848 847 845 844 843 842 841 839 837 834 830 827 823 820 817 814 814 812 810 809 809 809
810 818 828 835 852 863 870 875 877 877 876 878 880 881 882 883 885 883 884 887 888 891 891 892 891 886 891 898 896 896 896 895 895 894 895 894 894 894 893 893 891 890 890 888 887 886 885 884 883 882 881 880 879 878 877 875 874 873 872 871 869 868 866 866 865 863 862 860 859 857 855 854 851 850 849 849 848 847 846 844 842 841 839 837 834 831 828 824 819 816 815 815 812 810 809 808 807
816 824 833 842 857 867 872 876 878 877 878 881 882 883 883 884 886 885 883 885 890 891 891 892 890 890 893 897 897 896 895 895 895 894 894 894 894 894 893 892 891 891 889 888 887 886 884 884 883 882 881 880 879 878 876 875 874 873 872 871 869 868 867 866 864 863 862 860 859 858 856 855 853 852 850 849 848 847 846 844 843 841 839 837 835 831 829 825 820 818 817 816 814 813 811 809 807
822 832 836 845 858 863 868 874 877 878 879 880 882 884 884 885 885 887 886 885 891 891 891 890 889 895 896 896 896 894 894 894 894 894 894 893 894 893 893 892 891 890 889 888 887 886 885 883 883 882 881 880 879 878 876 875 874 873 871 870 869 868 867 866 864 863 862 860 859 858 856 855 854 853 851 849 847 846 844 844 843 841 840 838 836 833 830 826 822 820 819 818 816 814 812 810 806
825 838 837 847 862 864 869 875 877 878 879 879 879 884 884 886 884 885 887 886 890 890 890 889 888 893 894 896 895 893 894 893 894 894 893 893 894 893 892 892 891 890 889 888 887 886 885 884 883 882 881 880 879 877 876 875 873 872 871 870 869 867 867 865 864 863 861 860 858 857 856 854 853 852 850 848 846 845 843 842 842 841 841 839 838 834 831 827 824 822 820 819 818 815 813 810 806
829 842 837 852 875 875 876 878 878 880 879 877 879 884 885 885 885 886 888 888 890 889 889 888 889 890 891 895 894 893 893 892 893 893 893 893 893 893 892 892 890 890 889 888 887 886 885 884 883 881 881 880 878 877 875 874 873 872 870 869 868 867 866 865 864 862 861 859 858 857 855 854 852 851 850 848 847 844 842 841 841 841 841 839 838 835 832 829 826 824 823 821 818 817 814 810 808
833 843 841 862 884 879 879 879 880 880 876 878 881 884 886 887 888 889 889 888 888 888 888 889 890 889 890 893 892 892 891 890 892 892 893 893 892 892 891 891 890 889 888 888 887 886 885 883 882 881 880 879 878 876 875 874 873 871 870 869 868 867 866 865 864 862 861 859 858 856 854 853 851 850 849 848 847 845 843 841 840 840 840 839 837 834 831 829 828 826 825 823 820 818 815 812 809
835 844 850 869 880 876 879 879 880 879 873 877 882 884 886 889 891 890 890 887 886 890 889 889 890 887 887 887 883 887 888 888 891 891 892 892 891 891 891 890 889 889 888 887 886 885 884 883 882 880 879 878 877 876 875 874 872 871 870 868 867 866 865 864 863 861 860 858 857 856 854 853 851 849 848 847 847 845 843 841 840 840 839 838 836 833 830 829 829 827 825 823 821 819 817 814 810
837 841 851 867 875 874 877 880 884 880 873 878 884 885 885 888 891 889 890 889 887 891 890 889 889 887 888 884 880 883 885 887 890 890 891 891 891 890 890 890 888 888 887 886 885 884 883 882 881 880 879 877 876 875 874 873 872 870 869 868 866 865 865 863 862 861 859 858 856 855 853 852 850 849 848 847 846 845 843 842 840 839 838 837 836 833 830 829 830 828 825 823 822 820 818 815 812
835 837 850 863 872 872 872 878 880 873 871 881 885 885 883 885 890 889 890 890 889 891 891 890 890 889 888 885 882 883 885 887 889 889 890 890 890 890 889 889 888 887 885 885 884 883 883 881 880 879 878 876 875 875 873 872 871 870 868 867 866 865 864 863 862 860 859 857 856 854 853 851 850 848 847 846 846 845 843 842 841 840 838 837 835 832 830 830 830 828 825 824 822 820 819 816 814
836 844 853 858 868 869 866 871 875 870 869 878 883 885 884 881 885 889 888 889 890 891 891 890 890 889 888 885 884 884 885 887 888 888 889 889 889 889 888 887 886 885 884 884 883 882 881 880 880 878 877 875 874 873 872 871 870 869 867 866 865 864 863 862 861 860 858 857 855 854 852 851 849 848 847 846 845 845 844 843 842 840 839 837 834 831 830 829 829 828 825 823 822 821 818 815 813
845 855 855 858 868 867 867 868 871 871 867 875 883 886 885 880 883 887 884 885 890 888 887 891 890 887 887 886 885 885 885 886 887 887 887 888 888 887 886 886 885 884 883 882 882 881 880 879 878 877 876 874 873 872 871 870 869 867 866 865 864 863 862 861 860 859 857 856 855 853 852 851 849 848 847 846 845 844 843 842 841 840 838 836 833 830 829 828 828 827 825 823 822 821 818 815 813
853 856 853 862 868 866 872 870 869 871 869 875 882 886 887 883 884 886 882 884 889 885 881 885 885 884 886 886 885 885 885 886 886 886 886 886 886 886 885 884 883 882 881 881 880 880 879 878 877 876 875 873 872 871 870 869 868 866 865 864 863 862 861 859 859 857 856 855 854 853 852 850 849 848 846 845 844 842 841 840 838 837 836 834 832 830 828 827 827 826 825 823 821 820 818 816 815
855 858 856 865 869 866 871 870 870 875 874 874 880 886 884 884 886 886 884 881 882 881 877 877 876 879 884 885 885 885 885 885 885 885 885 885 884 884 883 882 881 880 880 879 879 878 878 877 876 875 873 872 871 870 869 867 866 865 864 863 861 860 859 858 857 856 855 854 853 852 851 850 848 847 846 844 843 841 839 838 836 835 834 833 831 830 828 827 827 826 825 823 821 820 819 817 816
857 867 866 868 869 866 870 874 875 876 878 879 881 881 879 884 885 884 884 875 869 872 874 875 874 876 880 882 883 883 884 883 883 883 883 883 883 882 881 880 880 879 878 878 877 877 876 876 875 873 872 871 870 869 867 866 865 864 862 861 860 859 858 857 855 855 854 853 852 851 849 848 847 846 845 844 842 841 839 837 836 834 833 832 831 829 829 828 827 827 826 823 821 820 819 818 817
857 867 870 869 869 867 873 878 877 877 878 876 878 878 881 884 881 883 885 871 867 872 874 875 875 877 878 879 881 881 882 881 881 881 881 881 880 880 879 878 878 877 877 876 876 875 875 874 873 871 870 869 868 867 866 865 864 862 861 860 859 858 856 855 854 853 852 852 851 850 848 847 846 845 844 843 842 841 839 837 836 835 833 832 831 830 829 829 828 828 826 824 822 820 819 818 817
856 864 869 869 870 872 876 879 879 880 876 876 879 879 882 881 878 884 882 869 869 874 874 874 874 876 878 879 879 879 879 879 878 878 878 879 878 877 877 876 876 875 875 874 874 874 873 872 871 869 868 867 866 865 864 863 862 861 860 859 858 856 855 854 853 852 851 850 849 848 847 846 844 843 842 842 840 840 839 837 836 835 834 833 832 831 830 830 829 828 826 824 822 820 819 817 816
858 865 869 870 873 876 880 880 880 882 880 882 882 878 882 883 884 885 874 866 870 873 872 874 874 875 877 878 877 878 878 877 876 876 876 876 876 875 875 874 874 873 872 872 872 872 871 870 869 868 866 865 864 863 863 861 861 860 858 857 856 855 854 853 852 851 849 848 848 847 845 844 843 842 841 840 839 838 837 837 836 834 833 833 832 831 831 830 828 827 825 823 821 820 819 817 816
862 867 869 870 874 878 879 878 880 882 882 884 879 877 884 887 887 877 865 866 870 872 873 874 875 875 876 876 876 876 876 875 874 874 874 874 873 873 873 872 872 871 870 870 871 870 869 868 867 866 864 863 863 862 861 861 859 858 857 856 855 854 853 852 851 849 848 847 846 845 844 842 841 840 839 838 837 837 836 835 834 833 832 831 831 830 830 829 827 826 824 822 821 819 818 818 817
866 869 871 873 876 878 878 876 879 881 880 883 877 876 883 888 886 869 859 869 871 871 873 874 875 875 874 875 874 874 873 872 871 872 872 871 871 870 870 870 869 869 869 868 868 868 867 866 865 864 863 862 861 860 860 859 858 857 856 855 853 852 851 850 849 848 847 846 844 843 842 840 839 838 837 836 836 835 834 833 832 831 830 829 829 829 828 827 826 824 823 822 820 819 818 817 817
868 868 869 875 876 876 877 876 878 879 877 882 880 878 883 888 883 865 861 870 871 870 872 874 875 874 874 873 873 873 872 870 870 871 869 868 868 868 867 867 867 866 866 866 866 866 865 864 863 862 861 860 859 859 858 857 857 856 854 853 852 851 850 849 848 847 846 844 843 841 840 838 837 836 835 834 834 834 833 831 830 830 829 828 827 827 826 825 825 823 822 821 820 820 818 817 817
869 868 867 872 875 873 873 874 879 878 875 881 882 872 873 881 873 860 866 872 872 872 871 873 874 873 873 873 872 871 870 869 869 867 866 865 865 865 865 864 865 864 864 864 863 863 862 862 861 860 859 858 858 857 856 856 855 854 853 851 850 849 849 848 847 845 844 843 841 840 838 837 835 834 833 833 832 832 831 830 829 828 827 827 825 825 824 824 823 823 822 821 820 819 818 817 816
868 871 871 872 873 869 870 875 879 878 877 882 880 862 852 864 866 861 870 872 871 873 871 872 872 872 872 871 871 869 868 867 866 864 862 863 863 863 862 862 862 861 862 861 861 861 860 859 858 858 857 856 856 855 854 854 853 852 851 850 848 848 847 846 845 844 842 841 839 838 837 836 834 833 832 831 830 829 829 828 827 826 826 826 825 824 823 823 823 822 822 821 820 819 817 817 815
870 872 875 880 873 864 869 878 877 874 878 883 880 867 852 853 858 861 869 871 870 868 868 870 870 870 870 869 869 867 865 864 862 861 860 860 860 860 860 859 860 859 859 859 859 859 858 857 856 855 855 854 853 853 852 852 851 850 848 848 846 846 845 844 843 842 841 839 838 837 835 834 833 832 831 829 829 828 827 826 825 825 824 824 824 824 823 822 822 821 821 820 820 819 817 816 815
876 869 867 881 878 866 869 877 877 871 878 886 879 869 859 854 854 861 869 871 870 866 865 869 868 868 868 867 867 864 862 861 860 859 857 857 857 857 857 856 857 857 856 856 856 857 856 855 854 853 853 852 851 851 850 850 849 848 846 845 844 843 843 842 841 840 839 837 836 835 834 833 832 831 830 829 828 826 825 824 824 823 823 822 822 822 822 821 821 820 820 819 818 817 816 815 813
877 873 863 872 876 872 870 873 880 876 876 884 880 868 860 854 855 864 871 870 870 867 864 866 866 865 865 865 864 863 861 859 858 855 853 854 854 854 854 854 854 854 854 854 854 854 853 852 851 851 851 850 849 849 848 847 846 845 844 843 842 841 840 839 839 837 836 835 834 833 832 831 830 830 829 828 827 825 824 823 822 822 821 821 820 820 820 819 819 819 818 818 817 815 814 813 812
871 878 872 873 878 876 871 868 878 882 877 877 880 876 864 855 856 862 867 869 870 867 862 862 863 863 863 863 862 861 860 858 854 850 849 850 850 851 851 851 851 851 851 851 852 851 850 850 849 849 848 847 847 846 846 845 844 843 841 841 839 838 838 837 836 835 834 833 832 831 830 829 829 828 827 827 826 824 824 822 821 821 820 819 818 818 817 817 817 816 816 816 816 814 813 812 810
868 873 871 875 882 880 876 872 876 881 879 876 879 876 866 858 856 857 861 868 868 863 860 860 860 861 861 861 861 858 858 856 848 844 846 848 847 848 848 848 848 848 849 848 848 849 847 847 847 846 846 845 845 844 843 842 841 840 839 838 837 836 835 834 834 833 832 831 830 829 828 827 826 826 825 825 824 823 822 821 820 819 818 818 817 816 816 815 815 814 813 813 814 814 812 811 809
873 878 880 877 879 879 876 873 878 883 878 874 875 870 862 856 852 851 856 864 865 860 860 859 858 859 859 858 857 856 855 850 843 842 844 845 844 845 845 845 845 845 845 846 845 845 845 844 844 843 843 842 842 841 840 839 839 838 837 836 834 833 832 831 831 830 830 829 828 827 826 825 824 824 823 823 822 821 820 819 818 818 817 816 816 815 815 814 814 812 811 810 810 811 811 811 809
882 884 885 883 883 878 872 872 879 883 873 863 865 867 861 853 847 845 850 858 861 859 859 858 856 856 855 855 853 851 850 843 839 841 841 841 841 841 842 842 842 842 842 842 842 841 841 841 840 840 840 839 839 838 837 837 836 836 835 833 832 831 830 828 828 827 827 827 826 825 824 823 822 822 821 821 820 819 818 818 817 816 815 815 814 814 813 813 813 812 811 809 808 808 808 809 808
886 885 883 883 885 875 870 876 880 881 874 863 865 865 854 847 842 840 847 852 852 854 855 854 853 853 852 851 849 846 844 840 839 839 837 837 838 837 838 838 838 838 838 838 838 838 838 838 837 837 837 837 836 835 835 834 834 833 832 831 830 828 827 826 825 825 824 824 823 823 822 821 820 820 820 819 819 818 817 816 815 814 813 813 812 812 812 811 811 810 810 809 807 806 805 806 807
885 886 883 876 877 874 869 878 882 882 878 867 868 867 849 841 841 839 845 847 845 849 851 849 849 849 848 846 845 843 841 838 836 834 833 833 834 834 834 834 834 833 834 835 834 835 835 834 834 834 834 834 833 832 832 832 831 831 830 829 828 827 825 825 824 823 822 822 821 821 820 819 818 818 818 817 817 816 815 814 813 812 811 811 810 810 810 810 809 809 808 808 807 806 805 805 805
879 881 879 870 874 876 868 873 880 880 880 875 875 874 854 838 835 835 844 849 847 850 849 848 849 845 843 843 842 841 838 835 832 830 830 830 830 831 830 829 830 830 831 830 830 831 831 830 831 831 831 830 830 830 830 830 829 829 828 827 826 825 823 823 822 821 820 820 819 819 818 817 816 816 816 816 816 815 814 813 812 811 810 809 809 808 808 808 808 807 807 807 807 806 805 804 805
876 878 878 870 870 877 874 877 882 878 879 882 877 861 838 829 825 824 841 852 847 849 848 843 846 844 842 842 839 837 834 831 829 826 825 826 826 826 825 825 826 826 826 825 826 827 827 827 827 827 827 827 827 827 827 828 827 826 826 825 824 823 822 821 820 819 818 818 817 817 816 815 814 814 814 814 814 813 812 811 811 809 809 808 807 807 806 806 806 806 806 805 805 806 805 805 804
876 874 876 873 871 879 882 884 886 871 862 876 876 845 820 824 825 819 836 844 836 843 846 836 838 841 840 840 835 831 830 827 826 823 821 822 822 822 822 823 823 821 820 821 822 823 823 824 824 824 824 824 824 825 825 825 825 824 824 823 822 821 820 819 818 817 816 815 815 814 814 813 813 812 812 812 812 812 811 810 809 808 807 807 806 806 805 805 805 804 804 804 804 805 804 804 804
872 871 877 879 880 884 885 888 885 864 854 872 879 853 831 827 821 824 842 841 829 834 836 831 834 836 835 835 830 826 825 822 821 819 818 818 818 819 819 818 817 816 815 818 819 820 820 820 820 820 820 821 821 822 822 822 822 822 822 821 820 819 818 817 816 815 814 813 812 812 812 811 811 810 810 810 810 810 809 808 808 807 806 805 804 804 804 803 803 803 803 803 803 803 803 803 803
866 876 883 881 884 884 884 887 883 877 872 874 877 867 855 839 823 838 852 836 822 822 820 821 824 827 829 828 826 823 820 818 817 816 814 814 813 814 813 812 812 812 812 815 815 815 816 816 816 817 817 818 818 819 819 820 820 820 819 819 818 817 816 814 814 813 812 811 810 809 810 809 809 808 808 809 809 808 808 807 806 805 805 804 803 803 802 802 802 801 801 801 801 802 802 802 802
868 882 886 883 886 884 888 888 884 892 878 858 869 873 860 841 826 843 853 830 817 814 812 813 813 815 820 821 820 819 815 813 813 812 810 809 809 808 808 808 808 809 810 811 811 811 812 812 813 813 814 814 815 815 816 816 817 817 817 816 815 814 814 813 812 811 810 809 808 807 807 807 806 806 806 806 807 806 806 805 805 804 803 803 802 801 801 800 800 800 800 800 800 800 800 800 800
874 883 884 886 891 888 892 889 882 889 866 844 868 877 860 839 819 826 838 824 815 812 811 812 811 813 815 816 816 813 812 811 809 809 806 804 804 804 805 806 806 806 806 807 807 808 808 808 809 809 810 810 811 812 812 813 814 814 814 813 812 812 811 811 810 809 808 807 805 805 804 805 804 804 804 804 804 804 804 804 803 802 802 801 801 800 799 799 798 798 798 798 798 798 798 799 798
878 878 876 879 888 890 893 895 888 872 847 848 877 882 870 849 820 815 820 814 811 811 810 811 811 812 811 812 812 809 808 807 805 805 803 801 801 802 803 802 801 801 802 803 803 803 804 804 805 805 806 807 807 808 809 810 811 811 811 810 810 809 809 809 808 806 806 805 803 802 802 802 802 802 802 802 802 802 802 802 801 801 800 800 800 799 798 797 797 797 796 796 796 796 796 797 796
880 875 873 866 870 878 876 878 877 850 833 859 886 884 879 860 825 811 813 815 818 816 812 809 806 806 805 806 806 806 806 805 804 803 800 799 799 799 799 797 797 798 798 798 798 798 800 799 801 801 801 802 803 804 805 806 807 807 807 807 807 806 806 806 805 804 804 803 801 800 800 800 800 800 800 799 799 799 800 800 800 799 799 798 798 797 797 796 795 795 794 794 794 794 794 794 794
875 871 872 856 851 859 850 850 861 848 843 873 889 878 873 858 828 812 811 811 814 816 815 810 807 805 803 803 802 802 805 804 803 801 798 797 796 794 794 792 792 793 792 792 793 794 795 795 796 796 796 798 799 800 801 802 803 803 803 803 803 803 803 803 802 801 801 800 799 798 797 797 797 797 797 797 797 797 797 797 797 797 797 796 796 796 795 794 794 793 793 792 792 792 792 792 792
871 872 873 858 855 860 850 853 864 856 855 879 896 883 862 842 821 812 810 804 804 811 813 812 811 808 804 803 803 803 803 802 800 799 796 794 791 789 789 788 788 788 787 788 788 789 790 791 791 791 792 794 795 796 797 798 798 799 799 800 800 800 800 799 799 798 798 797 797 796 795 794 794 794 794 795 794 795 795 795 795 795 795 794 794 794 793 793 792 791 791 790 790 790 790 789 789
880 887 884 866 863 864 857 858 858 860 871 883 890 875 845 822 805 803 808 807 810 813 814 817 815 811 810 808 807 804 800 798 795 795 793 789 787 785 784 784 783 782 783 783 784 785 786 786 786 787 787 789 791 792 793 794 794 795 796 796 796 796 796 796 796 795 794 794 794 794 793 792 791 791 792 792 792 792 792 792 792 792 792 792 792 792 791 791 791 790 789 788 788 787 787 787 787
886 895 885 870 871 870 874 885 888 895 895 881 875 861 840 825 807 806 813 808 808 810 810 814 808 805 811 809 804 801 796 793 791 790 788 784 782 781 780 779 778 778 779 779 779 780 780 781 781 782 783 784 786 788 789 790 790 791 792 792 792 793 793 792 792 791 791 791 791 791 790 789 789 788 789 789 789 789 789 789 789 789 789 789 789 789 789 789 788 788 787 786 785 785 785 784 785
883 886 875 880 890 880 877 895 913 921 896 867 863 850 838 832 807 799 809 799 794 798 797 800 798 799 807 803 798 796 791 789 787 785 783 779 777 777 775 774 773 773 773 773 773 773 774 775 776 777 778 780 782 783 784 786 787 787 788 788 789 789 789 788 788 788 787 787 787 787 787 786 786 785 786 786 786 786 786 786 786 786 786 786 786 786 786 786 786 785 784 784 783 783 782 782 782
879 878 877 888 894 887 885 886 892 903 886 861 858 846 840 841 812 793 798 792 789 792 791 794 795 797 799 795 792 791 787 786 783 781 779 776 774 772 770 769 768 767 767 766 767 768 769 770 770 772 773 775 777 778 780 781 782 783 783 784 785 784 784 784 784 784 784 784 784 783 783 783 783 782 782 783 783 783 783 783 783 783 783 783 783 783 783 783 783 782 782 781 781 780 780 779 779
882 879 885 886 876 875 886 883 872 881 882 863 857 858 852 839 816 796 791 789 790 791 793 794 792 792 792 789 788 786 784 783 781 778 776 773 771 768 766 765 763 763 763 762 763 764 764 764 765 766 767 769 771 773 775 776 778 779 779 780 780 780 780 780 780 780 780 780 779 779 780 779 779 779 779 779 780 780 780 780 780 780 780 780 780 780 780 780 779 779 779 778 778 778 777 777 777
889 886 890 889 884 881 884 889 885 880 879 870 861 854 833 816 810 801 791 792 792 791 793 792 789 789 789 787 785 782 781 779 777 775 772 769 767 764 762 761 760 759 759 759 759 759 758 758 759 761 762 764 766 768 769 771 772 774 774 775 775 776 776 776 776 776 776 776 775 776 776 776 776 776 776 776 776 776 777 777 777 777 777 776 776 776 776 776 776 776 776 775 775 776 775 774 774
882 882 885 887 893 897 890 894 900 886 877 883 879 853 815 800 806 801 793 794 791 790 793 792 791 790 788 786 784 780 778 776 774 771 768 766 763 761 759 758 757 757 756 756 755 755 754 754 754 755 757 759 760 762 764 765 767 768 769 770 770 771 771 771 772 772 772 772 772 772 772 772 772 772 772 772 772 773 773 773 774 773 773 773 773 773 773 773 773 772 772 773 773 773 773 772 772
873 869 873 876 882 888 879 881 900 903 889 884 885 859 812 792 800 798 794 794 790 792 796 794 792 790 787 785 782 779 778 775 772 769 766 763 761 758 757 756 755 754 753 752 751 751 750 749 749 750 751 753 754 756 758 760 762 763 764 765 765 766 766 767 768 767 767 768 768 768 768 768 769 768 769 769 768 769 769 770 770 770 770 770 769 770 770 770 770 769 770 770 770 771 770 770 770